Regional Weather Roundup
Issued by NWS

Home | Current Version | Previous Version | Text Only | Print | Product List | Glossary On
Versions: 1 2 3 4 5 6 7 8 9 10 11 12 13 14 15 16 17 18 19 20 21 22 23 24 25 26 27 28 29 30 31 32 33 34 35 36 37 38 39 40 41 42 43 44 45 46 47 48 49 50
000
ASUS43 KLMK 231210
RWRKY
KENTUCKY REGIONAL WEATHER ROUNDUP
NATIONAL WEATHER SERVICE LOUISVILLE KY
800 AM EDT SAT AUG 23 2014

NOTE "FAIR" INDICATES FEW OR NO CLOUDS BELOW 12,000 FEET
WITH NO SIGNIFICANT WEATHER AND/OR OBSTRUCTIONS TO VISIBILITY.

KYZ001>023-026-027-061>063-070>075-231300-
WESTERN AND SOUTH CENTRAL KENTUCKY

CITY           SKY/WX    TMP DP  RH WIND       PRES   REMARKS
PADUCAH        MOCLDY    79  74  84 SW3       29.97S
HENDERSON      PTCLDY    75  70  83 S6        29.96S
OWENSBORO      CLOUDY    74  73  96 S6        29.98S
HOPKINSVILLE   DRIZZLE   74  74 100 SE3       30.01S
BOWLING GREEN  PTCLDY    74  72  93 CALM      30.01R
GLASGOW        CLOUDY    73  73 100 CALM      30.01S FOG
$$

KYZ024-025-028>034-038-045-046-053-231300-
NORTH CENTRAL KENTUCKY

CITY           SKY/WX    TMP DP  RH WIND       PRES   REMARKS
LOUISVILLE/SDF MOCLDY    74  72  93 MISG      29.99S
LOUISVILLE/LOU CLEAR     73  72  96 CALM      30.01R FOG
FORT KNOX      MOCLDY    72  68  88 CALM      30.00R FOG
$$

KYZ035>037-039>044-047>052-055>060-089>105-231300-
NORTHEAST KENTUCKY

CITY           SKY/WX    TMP DP  RH WIND       PRES   REMARKS
LEXINGTON      SUNNY     72  69  90 CALM      30.03R FOG
COVINGTON      MOSUNNY   73  71  93 CALM      30.01S
FRANKFORT      MOSUNNY   71  69  93 CALM      30.01S
$$

KYZ054-064>069-076>088-106>120-231300-
SOUTHEAST KENTUCKY

CITY           SKY/WX    TMP DP  RH WIND       PRES   REMARKS
JACKSON        FOG       69  68  96 CALM      30.04R VSB 1/4
LONDON         MOSUNNY   74  71  91 CALM      30.05R
SOMERSET       MOSUNNY   72  72 100 CALM      30.05R FOG
MIDDLESBORO    MOSUNNY   71  70  97 CALM      30.05S
MONTICELLO     PTSUNNY   74  74 100 CALM      30.05R FOG
$$



USA.gov is the U.S. government's official web portal to all federal, state and local government web resources and services.